SCP
0 0 0 0 0 0 0 0 0 0 0 0 0 0 0 0 0 0 0 0 0 0 0 0 0 0 0 0 0 0 0 0 0 0 0 0 0 0 0 0 0 0 0 0
0 0 0 0 0 0 0 0 0 0 0 0 0 0 0 0 0 0 0 0 0 0 0 0 0 0 0 0 0 0 0 0 0 0 0 0 0 0 0 0 0 0 0 0
0 0 0 0 0 0 0 0 0 0 0 0 0 0 0 0 0 0 0 0 0 0 0 0 0 0 0 0 0 0 0 0 0 0 0 0 0 0 0 0 0 0 0 0
0 0 0 0 0 0 0 0 0 0 0 0 0 0 0 0 0 0 0 0 0 0 0 0 0 0 0 0 0 0 0 0 0 0 0 0 0 0 0 0 0 0 0 0
0 0 0 0 0 0 0 0 0 0 0 0 0 0 0 0 0 0 0 0 0 0 0 0 0 0 0 0 0 0 0 0 0 0 0 0 0 0 0 0 0 0 0 0
0 0 0 0 0 0 0 0 0 0 0 0 0 0 0 0 0 0 0 0 0 0 0 0 0 0 0 0 0 0 0 0 0 0 0 0 0 0 0 0 0 0 0 0
0 0 0 0 0 0 0 0 0 0 0 0 0 0 0 0 0 0 0 0 0 0 0 0 0 0 0 0 0 0 0 0 0 0 0 0 0 0 0 0 0 0 0 0
0 0 0 0 0 0 0 0 0 0 0 0 0 0 0 0 0 0 0 0 0 0 0 0 0 0 0 0 0 0 0 0 0 0 0 0 0 0 0 0 0 0 0 0
0 0 0 0 0 0 0 0 0 0 0 0 0 0 0 0 0 0 0 0 0 0 0 0 0 0 0 0 0 0 0 0 0 0 0 0 0 0 0 0 0 0 0 0
0 0 0 0 0 0 0 0 0 0 0 0 0 0 0 0 0 0 0 0 0 0 0 0 0 0 0 0 0 0 0 0 0 0 0 0 0 0 0 0 0 0 0 0
0 0 0 0 0 0 0 0 0 0 0 0 0 0 0 0 0 0 0 0 0 0 0 0 0 0 0 0 0 0 0 0 0 0 0 0 0 0 0 0 0 0 0 0
0 0 0 0 0 0 0 0 0 0 0 0 0 0 0 0 0 0 0 0 0 0 0 0 0 0 0 0 0 0 0 0 0 0 0 0 0 0 0 0 0 0 0 0
0 0 0 0 0 0 0 0 0 0 0 0 0 0 0 0 0 0 0 0 0 0 0 0 0 0 0 0 0 0 0 0 0 0 0 0 0 0 0 0 0 0 0 0
0 0 0 0 0 0 0 0 0 0 0 0 0 0 0 0 0 0 0 0 0 0 0 0 0 0 0 0 0 0 0 0 0 0 0 0 0 0 0 0 0 0 0 0
0 0 0 0 0 0 0 0 0 0 0 0 0 0 0 0 0 0 0 0 0 0 0 0 0 0 0 0 0 0 0 0 0 0 0 0 0 0 0 0 0 0 0 0
0 0 0 0 0 0 0 0 0 0 0 0 0 0 0 0 0 0 0 0 0 0 0 0 0 0 0 0 0 0 0 0 0 0 0 0 0 0 0 0 0 0 0 0
0 0 0 0 0 0 0 0 0 0 0 0 0 0 0 0 0 0 0 0 0 0 0 0 0 0 0 0 0 0 0 0 0 0 0 0 0 0 0 0 0 0 0 0
0 0 0 0 0 0 0 0 0 0 0 0 0 0 0 0 0 0 0 0 0 0 0 0 0 0 0 0 0 0 0 0 0 0 0 0 0 0 0 0 0 0 0 0
0 0 0 0 0 0 0 0 0 0 0 0 0 0 0 0 0 0 0 0 0 0 0 0 0 0 0 0 0 0 0 0 0 0 0 0 0 0 0 0 0 0 0 0
0 0 0 0 0 0 0 0 0 0 0 0 0 0 0 0 0 0 0 0 0 0 0 0 0 0 0 0 0 0 0 0 0 0 0 0 0 0 0 0 0 0 0 0
0 0 0 0 0 0 0 0 0 0 0 0 0 0 0 0 0 0 0 0 0 0 0 0 0 0 0 0 0 0 0 0 0 0 0 0 0 0 0 0 0 0 0 0
0 0 0 0 0 0 0 0 0 0 0 0 0 0 0 0 0 0 0 0 0 0 0 0 0 0 0 0 0 0 0 0 0 0 0 0 0 0 0 0 0 0 0 0
0 0 0 0 0 0 0 0 0 0 0 0 0 0 0 0 0 0 0 0 0 0 0 0 0 0 0 0 0 0 0 0 0 0 0 0 0 0 0 0 0 0 0 0
0 0 0 0 0 0 0 0 -0 -0 -0 0 0 0 0 0 0 0 0 0 0 0 0 0 0 0 0 0 0 0 0 0 0 0 0 0 0 0 0 0 0 0 0 0
0 0 0 0 0 0 0 0 -0 -0 -0 0 0 0 0 0 0 0 0 0 0 0 0 0 0 0 0 0 0 0 0 0 0 0 0 0 0 0 0 0 0 0 0 0
0 0 0 0 0 0 0 0 -0 -0 -0 0 0 0 0 0 0 0 0 0 0 0 0 0 0 0 0 0 0 0 0 0 0 0 0 0 0 0 0 0 0 0 0 0
0 0 0 0 0 0 0 0 0 0 0 0 0 0 0 0 0 0 0 0 0 0 0 0 0 0 0 0 0 0 0 0 0 0 0 0 0 0 0 0 0 0 0 0
Wind_Speed
8 5 4 8 10 13 14 12 11 12 12 19 17 13 9 6 9 12 14 15 14 12 10 9 8 6 5 4 4 5 6 7 8 8 9 9 10 10 11 11 12 13 13 14
5 3 5 9 13 15 16 13 16 18 21 18 11 5 6 7 11 14 16 16 14 13 11 10 9 7 5 5 4 5 6 7 8 8 9 9 9 10 11 11 12 12 12 13
4 2 6 11 11 15 11 13 13 13 12 6 6 8 9 9 13 16 16 16 15 14 12 10 9 7 6 5 4 5 6 7 7 8 9 9 9 10 11 11 11 12 12 12
4 4 8 2 3 9 9 11 15 15 16 13 11 9 8 10 13 15 15 15 15 13 11 10 8 7 5 4 5 6 6 7 7 8 9 9 10 10 11 10 10 11 12 12
3 5 10 5 6 8 7 10 13 17 19 13 2 6 9 12 14 13 15 14 13 12 11 10 9 7 6 5 6 6 7 7 7 8 9 9 10 10 10 10 10 11 11 12
4 5 9 3 5 5 3 9 8 12 13 7 4 6 4 7 12 12 12 11 12 12 11 10 9 8 7 7 7 7 6 7 7 8 9 10 10 11 10 10 10 11 11 11
7 7 12 2 8 8 5 5 4 10 10 9 11 9 0 6 10 12 13 13 13 12 11 10 9 8 8 7 7 6 6 7 8 8 9 9 10 9 10 9 10 10 11 11
7 8 12 8 12 12 9 1 4 7 9 11 13 7 5 8 10 13 13 14 14 12 10 9 9 9 9 8 7 5 6 7 8 8 7 7 9 9 9 9 10 10 10 11
13 11 1 13 13 10 3 6 7 7 9 11 11 10 10 10 12 14 14 14 13 12 11 9 10 10 10 7 5 5 6 7 7 8 7 7 8 9 8 7 7 8 9 9
9 15 10 13 16 16 14 15 14 11 9 10 12 12 13 12 13 14 15 14 13 13 12 11 11 11 10 7 6 6 6 6 6 7 7 7 6 6 6 6 7 8 9 9
11 11 10 13 17 19 17 16 16 15 13 14 14 13 14 13 15 15 14 14 13 13 13 12 12 11 10 8 7 7 6 5 5 5 6 6 6 5 7 6 7 9 8 9
14 10 10 13 7 8 12 14 15 13 13 14 15 14 14 14 14 14 15 14 14 14 13 12 12 11 10 9 8 7 6 5 4 4 4 5 6 6 5 6 10 11 11 12
19 10 11 15 12 9 12 14 12 13 14 13 14 14 15 12 13 14 14 16 17 17 15 13 12 11 11 10 9 8 7 5 4 4 4 5 5 6 7 6 7 7 10 13
17 10 11 15 17 16 14 13 10 11 13 12 12 13 13 13 14 16 18 18 17 15 14 13 13 12 11 11 10 9 7 6 5 4 4 4 4 5 5 7 8 6 8 10
18 16 18 19 18 13 9 8 11 13 12 13 13 14 15 17 18 18 17 16 15 15 15 14 14 13 12 12 11 10 7 5 4 4 3 4 4 4 4 6 6 7 7 7
12 12 17 20 25 22 18 17 18 19 15 15 16 17 18 17 15 15 16 18 18 19 17 16 15 13 13 12 11 8 7 9 7 4 3 3 3 3 4 4 5 6 6 7
12 15 18 21 26 25 22 20 20 18 14 16 17 15 15 15 15 16 17 18 17 17 16 16 15 13 13 13 12 8 7 7 9 5 4 4 3 3 3 4 4 5 5 7
23 25 24 22 22 22 20 16 15 16 15 14 13 15 18 20 21 19 18 17 15 14 15 15 14 13 14 13 11 8 7 6 6 5 4 4 4 3 3 4 4 6 5 6
21 23 25 24 22 19 16 13 12 12 12 12 16 19 20 20 18 17 17 18 19 19 17 15 20 16 14 15 14 8 8 7 6 6 5 5 5 4 3 3 4 4 5 5
18 18 19 19 17 14 14 12 10 11 12 14 16 17 18 19 17 17 19 18 17 14 14 17 18 15 14 15 16 9 9 9 8 7 6 5 5 4 3 3 3 4 4 5
15 14 15 15 16 15 15 15 13 13 12 15 18 19 18 16 17 18 18 16 15 13 16 23 16 13 13 14 18 10 10 9 8 8 7 6 5 5 4 4 3 3 4 4
12 13 15 14 15 16 12 10 11 11 12 14 16 15 14 16 18 18 18 12 14 20 16 14 13 17 18 19 12 11 11 10 9 8 7 7 6 5 5 4 4 3 3 4
13 14 14 13 12 12 10 8 10 10 12 14 16 17 18 16 15 16 15 12 12 23 17 13 18 25 27 17 12 12 12 11 10 9 8 7 7 6 5 5 4 3 3 4
12 12 11 9 8 9 11 10 8 8 10 11 12 13 14 13 12 13 7 16 21 24 15 18 26 28 27 13 12 12 11 11 10 9 8 7 7 6 5 5 4 4 4 5
10 9 9 8 8 9 9 8 7 7 9 8 10 12 12 11 10 11 10 15 23 24 15 20 28 29 20 12 13 12 11 11 10 9 9 8 8 7 6 6 5 4 4 4
9 10 9 9 8 8 7 6 6 6 6 7 8 8 10 9 9 9 10 14 19 22 16 13 18 21 15 14 13 13 11 11 12 11 10 9 9 8 7 6 7 5 4 4
11 10 9 9 9 7 6 7 8 8 7 8 8 8 10 10 10 11 13 12 14 15 13 13 14 15 15 14 13 12 11 10 10 10 10 9 8 8 8 8 6 5 4 4
Wind_Direction
268 271 245 248 228 203 212 229 245 257 267 283 300 308 297 252 204 192 189 190 191 193 193 196 202 210 223 245 268 285 294 300 308 312 314 314 317 319 320 321 322 324 325 326
263 222 225 254 238 222 228 236 247 265 276 275 290 289 257 226 200 199 198 196 194 194 193 197 201 205 214 235 258 279 288 295 301 305 309 312 316 318 319 320 322 323 325 325
265 213 279 264 225 194 203 214 214 233 256 278 268 260 258 234 208 208 201 196 193 193 194 194 195 197 208 226 251 268 277 285 295 301 305 309 313 313 318 320 320 320 320 322
287 305 252 257 116 181 211 232 220 242 263 270 274 290 271 238 215 209 200 194 192 189 187 185 180 184 198 222 245 262 272 278 285 294 300 306 311 313 317 317 316 315 317 319
237 269 277 262 183 183 208 267 224 230 253 265 320 292 257 220 212 207 195 190 185 181 176 171 173 178 191 220 239 254 264 274 284 290 295 302 307 311 314 314 312 312 314 317
201 230 252 245 140 153 166 271 224 212 239 228 184 268 291 168 191 193 183 176 169 164 165 170 173 174 196 221 234 248 262 276 284 288 292 299 304 309 312 311 307 310 311 314
213 238 264 206 136 151 206 269 189 203 221 192 205 229 104 156 177 179 173 168 164 164 172 176 169 175 204 222 235 247 265 278 284 288 294 298 301 306 309 309 309 310 312 315
183 209 252 158 153 196 229 258 201 214 216 212 224 221 187 182 177 174 171 169 169 172 176 170 170 185 209 224 231 240 260 274 283 291 295 294 301 306 311 313 312 315 317 320
198 218 277 173 206 226 261 248 238 226 224 219 226 220 203 193 185 182 179 174 176 178 174 175 183 196 213 219 215 233 256 272 285 293 294 296 303 309 314 317 315 317 319 321
242 258 250 228 241 252 245 248 256 245 233 214 220 217 201 192 187 185 183 180 178 179 183 188 192 202 214 210 210 233 255 273 287 293 298 303 305 307 312 314 315 317 323 325
246 264 283 257 235 243 250 250 253 249 236 225 221 217 202 194 190 187 184 182 181 187 192 194 192 199 203 204 208 228 248 265 281 290 298 304 308 310 312 308 312 319 324 324
244 234 229 268 250 228 235 243 241 238 235 224 217 216 202 198 190 185 183 181 184 191 195 194 191 196 195 195 202 218 237 254 273 289 299 306 312 313 307 304 317 324 327 329
251 258 251 271 277 250 246 251 242 229 228 224 215 211 201 194 185 183 183 185 190 193 195 192 191 195 192 190 196 210 225 242 260 275 292 304 313 318 322 324 322 326 336 337
246 257 270 261 260 261 253 250 246 238 233 224 211 202 197 191 185 188 192 192 191 190 191 191 193 196 188 186 193 206 217 230 244 259 275 288 299 307 312 320 325 332 337 340
238 226 240 260 269 265 249 238 238 238 228 219 206 198 193 191 192 195 192 185 185 188 191 191 196 196 182 184 192 200 207 216 225 241 256 272 285 294 302 310 315 321 328 337
239 227 239 255 262 263 254 243 241 244 231 216 207 204 200 198 195 190 185 181 184 192 192 192 198 192 179 183 188 196 204 214 223 232 239 252 265 283 301 311 315 320 329 335
240 246 244 249 257 259 253 244 241 243 230 216 211 201 193 193 194 192 189 189 192 193 190 192 194 183 179 183 186 190 193 200 212 221 228 237 251 271 291 302 310 316 322 327
240 247 250 252 259 264 263 252 240 236 229 216 198 191 193 195 198 194 187 184 189 195 195 192 185 177 180 182 184 186 187 191 197 208 214 223 237 254 273 288 302 311 318 324
246 250 255 258 260 263 265 260 245 234 221 200 195 199 201 203 198 187 178 179 187 196 196 187 183 178 181 185 180 184 187 190 195 203 209 218 227 237 253 275 294 308 315 321
256 258 261 265 266 264 264 262 250 235 217 203 201 202 204 202 192 182 180 190 198 194 176 176 181 181 183 184 181 182 187 192 197 199 202 209 217 226 239 259 282 299 309 317
269 272 272 273 275 273 267 265 253 241 215 200 203 207 204 196 188 183 184 197 200 183 171 176 179 180 181 181 184 183 187 191 196 199 201 205 209 217 228 243 262 281 298 309
287 286 284 283 283 284 277 260 246 236 217 208 208 205 198 192 190 193 199 198 176 175 172 178 180 182 180 179 182 183 188 191 195 197 200 203 206 211 217 228 245 263 282 297
301 298 294 291 288 288 285 263 243 234 226 216 208 202 200 195 189 190 197 197 171 176 176 181 182 182 180 178 181 183 187 191 194 197 199 200 203 207 212 220 232 248 267 284
298 298 295 294 295 288 281 273 248 239 233 225 217 207 199 194 197 204 198 177 178 178 181 184 182 182 179 179 180 184 188 191 194 195 196 197 199 203 208 214 224 235 250 268
287 286 287 288 287 282 279 278 261 241 231 230 222 209 204 204 198 193 187 178 179 177 179 185 184 183 180 180 181 185 187 191 190 190 192 194 197 200 203 208 216 226 238 253
279 280 281 272 271 276 279 271 260 245 229 228 221 208 204 203 196 183 182 182 181 180 176 177 182 184 184 182 184 186 186 189 193 194 194 194 197 198 201 205 212 219 230 244
272 272 273 276 272 263 258 252 252 245 228 223 220 206 200 197 193 185 181 180 180 181 178 177 180 183 183 183 184 185 184 185 188 189 189 192 193 196 198 200 205 209 219 233